Weather History for Belize, Belize

Change the Weather History Date:

Wednesday, May 8, 2013

  Actual Average Record
Temperature  
Mean Temperature 82 °F -  
Max Temperature 87 °F 90 °F 90 °F (2012)
Min Temperature 77 °F 76 °F 73 °F (2007)
Cooling Degree Days 17    
Growing Degree Days 32 (Base 50)    
Moisture  
Dew Point 71 °F    
Average Humidity 65    
Maximum Humidity 83    
Minimum Humidity 48    
Precipitation  
Precipitation 0.00 in 0.19 in - ()
Sea Level Pressure  
Sea Level Pressure 30.01 in    
Wind  
Wind Speed 6 mph ()    
Max Wind Speed 12 mph    
Max Gust Speed -    
Visibility 9.1 miles    
Events      
Averages and records for this station are not official NWS values.
T = Trace of Precipitation, MM = Missing Value Source: Averaged Metar Reports

Daily Weather History Graph

Daily Weather History Graph

Search for Another Location

Airport:

Trip Planner

Search our weather history database for the weather conditions in past years. The results will help you decide how hot, cold, wet, or windy it might be!

Date:

Astronomy

May. 08, 2013 Rise Set
Actual Time 5:23 AM CST 6:16 PM CST
Civil Twilight 5:00 AM CST 6:39 PM CST
Nautical Twilight 4:33 AM CST 7:06 PM CST
Astronomical Twilight 4:06 AM CST 7:33 PM CST
Moon 4:21 AM CST (5/8) 5:20 PM CST (5/8)
Length of Visible Light 13h 38m
Length of Day
12h 52m
Waning Crescent, 2% of the Moon is Illuminated
May 8
Waning Crescent
May 9
New
May 17
First Quarter
May 24
Full
May 31
Last Quarter

Hourly Weather History & Observations

Time (CST) Temp. Heat Index Dew Point Humidity Pressure Visibility Wind Dir Wind Speed Gust Speed Precip Events Conditions
12:00 AM 79 °F - 74 °F 81% 30.01 in 12 mi ESE 2.3 mph - -   Scattered Clouds
3:00 AM 78 °F - 74 °F 83% 29.98 in 12 mi ESE 4.6 mph - -   Partly Cloudy
5:00 AM 78.8 °F - 73.4 °F 83% 30.01 in 6.2 mi ESE 4.6 mph - N/A   Mostly Cloudy
6:00 AM 77 °F - 72 °F 80% 30.02 in 12 mi ESE 4.6 mph - -   Scattered Clouds
6:00 AM 77.0 °F - 71.6 °F 83% 30.01 in 6.2 mi ESE 4.6 mph - N/A   Scattered Clouds
7:00 AM 80.6 °F 84.6 °F 71.6 °F 74% 30.01 in 6.2 mi ESE 5.8 mph - N/A   Partly Cloudy
9:00 AM 84 °F - 70 °F 55% 30.05 in 14 mi ESE 9.2 mph - -   Scattered Clouds
9:00 AM 84.2 °F 88.4 °F 69.8 °F 62% 30.04 in 6.2 mi ESE 9.2 mph - N/A   Partly Cloudy
10:00 AM 86.0 °F 91.8 °F 71.6 °F 62% 30.05 in 6.2 mi ESE 6.9 mph - N/A   Mostly Cloudy
11:00 AM 87.8 °F 92.6 °F 69.8 °F 55% 30.05 in 6.2 mi East 9.2 mph - N/A   Scattered Clouds
12:00 PM 86 °F - 69 °F 48% 30.04 in 16 mi ENE 11.5 mph - -   Partly Cloudy
12:00 PM 86.0 °F 90.4 °F 69.8 °F 58% 30.03 in 6.2 mi ENE 11.5 mph - N/A   Scattered Clouds
1:00 PM 86.0 °F 90.4 °F 69.8 °F 58% 30.01 in 6.2 mi ENE 11.5 mph - N/A   Scattered Clouds
2:00 PM 86.0 °F 90.4 °F 69.8 °F 58% 29.98 in 6.2 mi East 10.4 mph - N/A   Scattered Clouds
3:00 PM 86 °F - 71 °F 52% 29.98 in 16 mi East 10.4 mph - -   Partly Cloudy
3:00 PM 86.0 °F 91.8 °F 71.6 °F 62% 29.97 in 6.2 mi East 10.4 mph - N/A   Scattered Clouds
4:00 PM 86.0 °F 90.4 °F 69.8 °F 58% 29.97 in 6.2 mi East 10.4 mph - N/A   Scattered Clouds
5:00 PM 82.4 °F 86.3 °F 69.8 °F 66% 29.97 in 6.2 mi East 10.4 mph - N/A   Partly Cloudy
6:00 PM 82 °F - 70 °F 59% 29.97 in 16 mi East 6.9 mph - -   Scattered Clouds
6:00 PM 82.4 °F 86.3 °F 69.8 °F 66% 29.97 in 6.2 mi East 6.9 mph - N/A   Partly Cloudy
9:00 PM 78 °F - 70 °F 70% 30.03 in 12 mi East 4.6 mph - -   Scattered Clouds